,,Stat6,,Stat2,,Stat8,,Stat9,,Stat10,,Wind1,,Wind1,
time,status,PA1M_AVG,status,PR1M_SUM,status,RH1M_AVG,status,SR1M_AVG,status,TA1M_AVG,status,W1dAve1m,status,W1sAve1m,
2005-06-12, 00:00:00,VALID,917.016,VALID,0,VALID,99.3301,VALID,-0.101885,VALID,21.486,VALID,16,VALID,0.422602,
2005-06-12, 00:01:00,VALID,917.013,VALID,0,VALID,99.3199,VALID,-0.101885,VALID,21.5048,VALID,16,VALID,0.321057,
2005-06-12, 00:02:00,VALID,917.008,VALID,0,VALID,99.2525,VALID,-0.101885,VALID,21.5145,VALID,16,VALID,0.186547,
2005-06-12, 00:03:00,VALID,916.991,VALID,0,VALID,99.1877,VALID,-0.101885,VALID,21.5277,VALID,13,VALID,0.471591,
2005-06-12, 00:04:00,VALID,916.977,VALID,0,VALID,99.1508,VALID,-0.0849042,VALID,21.5237,VALID,359,VALID,0.543155,
2005-06-12, 00:05:00,VALID,916.948,VALID,0,VALID,99.1419,VALID,-0.101885,VALID,21.521,VALID,359,VALID,0.180715,
2005-06-12, 00:06:00,VALID,916.921,VALID,0,VALID,99.1406,VALID,-0.0849042,VALID,21.5242,VALID,359,VALID,0.0375,
2005-06-12, 00:07:00,VALID,916.902,VALID,0,VALID,99.1546,VALID,-0.101885,VALID,21.5342,VALID,359,VALID,0.0316406,
2005-06-12, 00:08:00,VALID,916.884,VALID,0,VALID,99.0872,VALID,0,VALID,21.5323,VALID,359,VALID,0.122024,
2005-06-12, 00:09:00,VALID,916.866,VALID,0,VALID,99.0148,VALID,0,VALID,21.5255,VALID,359,VALID,0.0127841,
2005-06-12, 00:10:00,VALID,916.859,VALID,0,VALID,98.9156,VALID,0.0339617,VALID,21.5255,VALID,359,VALID,0.0522693,
2005-06-12, 00:11:00,VALID,916.868,VALID,0,VALID,98.7948,VALID,0.0169808,VALID,21.5064,VALID,359,VALID,0.00260417,
2005-06-12, 00:12:00,VALID,916.865,VALID,0,VALID,98.7032,VALID,0,VALID,21.4774,VALID,359,VALID,0.00101902,
2005-06-12, 00:13:00,VALID,916.857,VALID,0,VALID,98.59,VALID,0.0339617,VALID,21.4518,VALID,359,VALID,0,
2005-06-12, 00:14:00,VALID,916.853,VALID,0,VALID,98.4247,VALID,0.0339617,VALID,21.3998,VALID,359,VALID,0.155382,
2005-06-12, 00:15:00,VALID,916.857,VALID,0,VALID,98.4553,VALID,0,VALID,21.3646,VALID,359,VALID,0.299826,
2005-06-12, 00:16:00,VALID,916.839,VALID,0,VALID,98.7058,VALID,0.0339617,VALID,21.3352,VALID,359,VALID,0.00308866,
2005-06-12, 00:17:00,VALID,916.841,VALID,0,VALID,98.9334,VALID,-0.0169808,VALID,21.3223,VALID,359,VALID,0.0997024,
2005-06-12, 00:18:00,VALID,916.844,VALID,0,VALID,99.1394,VALID,0.0169808,VALID,21.3258,VALID,359,VALID,0.162997,
2005-06-12, 00:19:00,VALID,916.831,VALID,0,VALID,99.2538,VALID,0,VALID,21.3161,VALID,359,VALID,0.00260417,
2005-06-12, 00:20:00,VALID,916.825,VALID,0,VALID,99.2513,VALID,-0.0169808,VALID,21.3161,VALID,359,VALID,0,
2005-06-12, 00:21:00,VALID,916.828,VALID,0,VALID,99.3161,VALID,-0.0169808,VALID,21.3064,VALID,359,VALID,0,
2005-06-12, 00:22:00,VALID,916.813,VALID,0,VALID,99.3556,VALID,0,VALID,21.3064,VALID,359,VALID,0,
2005-06-12, 00:23:00,VALID,916.809,VALID,0,VALID,99.3848,VALID,-0.0339617,VALID,21.307,VALID,359,VALID,0,
2005-06-12, 00:24:00,VALID,916.809,VALID,0,VALID,99.3886,VALID,-0.0509425,VALID,21.2906,VALID,334,VALID,0.320313,
2005-06-12, 00:25:00,VALID,916.787,VALID,0,VALID,99.4725,VALID,-0.0339617,VALID,21.2744,VALID,288,VALID,0.483574,
2005-06-12, 00:26:00,VALID,916.788,VALID,0,VALID,99.5895,VALID,-0.0169808,VALID,21.2682,VALID,288,VALID,0.282924,
2005-06-12, 00:27:00,VALID,916.776,VALID,0,VALID,99.7154,VALID,-0.0339617,VALID,21.2521,VALID,288,VALID,0.0784647,
2005-06-12, 00:28:00,VALID,916.77,VALID,0,VALID,99.8133,VALID,-0.0339617,VALID,21.2588,VALID,288,VALID,0,
2005-06-12, 00:29:00,VALID,916.764,VALID,0,VALID,99.9023,VALID,0,VALID,21.2518,VALID,288,VALID,0.00111607,
2005-06-12, 00:30:00,VALID,916.752,VALID,0,VALID,99.9303,VALID,-0.0339617,VALID,21.2583,VALID,288,VALID,0,
2005-06-12, 00:31:00,VALID,916.741,VALID,0,VALID,99.9456,VALID,-0.0509425,VALID,21.2521,VALID,288,VALID,0,
2005-06-12, 00:32:00,VALID,916.731,VALID,0,VALID,99.9545,VALID,-0.0339617,VALID,21.2526,VALID,288,VALID,0,
2005-06-12, 00:33:00,VALID,916.732,VALID,0,VALID,99.9774,VALID,0,VALID,21.2486,VALID,288,VALID,0,
2005-06-12, 00:34:00,VALID,916.729,VALID,0,VALID,99.9835,VALID,-0.0849042,VALID,21.2486,VALID,288,VALID,0.00799419,
2005-06-12, 00:35:00,VALID,916.718,VALID,0,VALID,99.9659,VALID,-0.0679233,VALID,21.2364,VALID,285,VALID,0.183117,
2005-06-12, 00:36:00,VALID,916.701,VALID,0,VALID,99.9896,VALID,-0.0679233,VALID,21.2265,VALID,254,VALID,0.467226,
2005-06-12, 00:37:00,VALID,916.687,VALID,0,VALID,100,VALID,-0.0339617,VALID,21.2203,VALID,254,VALID,0.508539,
2005-06-12, 00:38:00,VALID,916.688,VALID,0,VALID,100,VALID,-0.0679233,VALID,21.2039,VALID,254,VALID,0.116097,
2005-06-12, 00:39:00,VALID,916.697,VALID,0,VALID,100,VALID,-0.0849042,VALID,21.2109,VALID,254,VALID,0,
2005-06-12, 00:40:00,VALID,916.687,VALID,0,VALID,100,VALID,-0.0679233,VALID,21.2033,VALID,254,VALID,0.0818537,
2005-06-12, 00:41:00,VALID,916.671,VALID,0,VALID,100,VALID,-0.0339617,VALID,21.2098,VALID,252,VALID,0.216273,
2005-06-12, 00:42:00,VALID,916.676,VALID,0,VALID,100,VALID,-0.0169808,VALID,21.2071,VALID,231,VALID,0.826601,
2005-06-12, 00:43:00,VALID,916.643,VALID,0,VALID,99.9954,VALID,-0.101885,VALID,21.1616,VALID,237,VALID,0.767485,
2005-06-12, 00:44:00,VALID,916.637,VALID,0,VALID,100,VALID,-0.0509425,VALID,21.1457,VALID,243,VALID,0.574124,
2005-06-12, 00:45:00,VALID,916.617,VALID,0,VALID,100,VALID,-0.0509425,VALID,21.1291,VALID,245,VALID,0.573264,
2005-06-12, 00:46:00,VALID,916.598,VALID,0,VALID,100,VALID,-0.0679233,VALID,21.1261,VALID,245,VALID,0.105729,
2005-06-12, 00:47:00,VALID,916.581,VALID,0,VALID,100,VALID,-0.0339617,VALID,21.1291,VALID,245,VALID,0.148615,
2005-06-12, 00:48:00,VALID,916.56,VALID,0,VALID,100,VALID,-0.0339617,VALID,21.1621,VALID,245,VALID,0.00429688,
2005-06-12, 00:49:00,VALID,916.541,VALID,0,VALID,100,VALID,-0.0509425,VALID,21.1519,VALID,245,VALID,0.180382,
2005-06-12, 00:50:00,VALID,916.526,VALID,0,VALID,100,VALID,-0.0679233,VALID,21.1358,VALID,245,VALID,0.0830966,
2005-06-12, 00:51:00,VALID,916.512,VALID,0,VALID,100,VALID,-0.0679233,VALID,21.1422,VALID,245,VALID,0.344477,
2005-06-12, 00:52:00,VALID,916.497,VALID,0,VALID,100,VALID,-0.0509425,VALID,21.1525,VALID,245,VALID,0.200893,
2005-06-12, 00:53:00,VALID,916.489,VALID,0,VALID,100,VALID,-0.0679233,VALID,21.1398,VALID,245,VALID,0.192587,
2005-06-12, 00:54:00,VALID,916.48,VALID,0,VALID,100,VALID,-0.0679233,VALID,21.1433,VALID,245,VALID,0.312109,
2005-06-12, 00:55:00,VALID,916.488,VALID,0,VALID,100,VALID,-0.0509425,VALID,21.1422,VALID,245,VALID,0.17242,
2005-06-12, 00:56:00,VALID,916.489,VALID,0,VALID,100,VALID,-0.0679233,VALID,21.1422,VALID,245,VALID,0.0234375,
2005-06-12, 00:57:00,VALID,916.484,VALID,0,VALID,100,VALID,-0.0509425,VALID,21.1621,VALID,245,VALID,0.792683,
2005-06-12, 00:58:00,VALID,916.495,VALID,0,VALID,100,VALID,-0.0679233,VALID,21.1619,VALID,245,VALID,0.158482,
2005-06-12, 00:59:00,VALID,916.492,VALID,0,VALID,100,VALID,-0.0509425,VALID,21.1689,VALID,245,VALID,0.0109747,
2005-06-12, 01:00:00,VALID,916.486,VALID,0,VALID,100,VALID,-0.0679233,VALID,21.1845,VALID,245,VALID,0,
2005-06-12, 01:01:00,VALID,916.471,VALID,0,VALID,100,VALID,-0.0509425,VALID,21.1883,VALID,245,VALID,0,
2005-06-12, 01:02:00,VALID,916.471,VALID,0,VALID,100,VALID,-0.0679233,VALID,21.1875,VALID,245,VALID,0.0509588,
2005-06-12, 01:03:00,VALID,916.44,VALID,0,VALID,100,VALID,0,VALID,21.1969,VALID,245,VALID,0.18423,
2005-06-12, 01:04:00,VALID,916.413,VALID,0,VALID,100,VALID,-0.0679233,VALID,21.2136,VALID,245,VALID,0.145089,
2005-06-12, 01:05:00,VALID,916.375,VALID,0,VALID,100,VALID,-0.0169808,VALID,21.2128,VALID,255,VALID,0.342535,
2005-06-12, 01:06:00,VALID,916.353,VALID,0,VALID,99.9906,VALID,-0.0339617,VALID,21.2294,VALID,4,VALID,0.279535,
2005-06-12, 01:07:00,VALID,916.35,VALID,0,VALID,99.9583,VALID,0,VALID,21.2456,VALID,4,VALID,0.199591,
2005-06-12, 01:08:00,VALID,916.345,VALID,0,VALID,99.8426,VALID,-0.0339617,VALID,21.2286,VALID,15,VALID,0.551153,
2005-06-12, 01:09:00,VALID,916.339,VALID,0,VALID,99.779,VALID,-0.0509425,VALID,21.2494,VALID,25,VALID,0.639205,
2005-06-12, 01:10:00,VALID,916.35,VALID,0,VALID,99.765,VALID,-0.0169808,VALID,21.2486,VALID,25,VALID,0.71503,
2005-06-12, 01:11:00,VALID,916.348,VALID,0,VALID,99.704,VALID,-0.0339617,VALID,21.2456,VALID,26,VALID,0.614099,
2005-06-12, 01:12:00,VALID,916.368,VALID,0,VALID,99.7281,VALID,-0.0679233,VALID,21.2389,VALID,26,VALID,0.169837,
2005-06-12, 01:13:00,VALID,916.374,VALID,0,VALID,99.7803,VALID,-0.0509425,VALID,21.2588,VALID,26,VALID,0,
2005-06-12, 01:14:00,VALID,916.383,VALID,0,VALID,99.7752,VALID,-0.0679233,VALID,21.2588,VALID,26,VALID,0,
2005-06-12, 01:15:00,VALID,916.381,VALID,0,VALID,99.7497,VALID,-0.0509425,VALID,21.2784,VALID,26,VALID,0,
2005-06-12, 01:16:00,VALID,916.387,VALID,0,VALID,99.704,VALID,-0.0679233,VALID,21.2881,VALID,26,VALID,0.247266,
2005-06-12, 01:17:00,VALID,916.386,VALID,0,VALID,99.676,VALID,-0.0339617,VALID,21.2841,VALID,2,VALID,0.782738,
2005-06-12, 01:18:00,VALID,916.403,VALID,0,VALID,99.7218,VALID,-0.0339617,VALID,21.3008,VALID,270,VALID,0.515988,
2005-06-12, 01:19:00,VALID,916.398,VALID,0,VALID,99.7014,VALID,-0.0169808,VALID,21.2978,VALID,236,VALID,0.289621,
2005-06-12, 01:20:00,VALID,916.4,VALID,0,VALID,99.6595,VALID,-0.0169808,VALID,21.304,VALID,235,VALID,0,
2005-06-12, 01:21:00,VALID,916.375,VALID,0,VALID,99.6607,VALID,-0.0509425,VALID,21.2965,VALID,235,VALID,0.0724432,
2005-06-12, 01:22:00,VALID,916.35,VALID,0,VALID,99.6658,VALID,-0.0169808,VALID,21.3064,VALID,235,VALID,0.332031,
2005-06-12, 01:23:00,VALID,916.348,VALID,0,VALID,99.7167,VALID,-0.0339617,VALID,21.3105,VALID,235,VALID,0.145774,
2005-06-12, 01:24:00,VALID,916.341,VALID,0,VALID,99.8095,VALID,-0.0849042,VALID,21.3169,VALID,236,VALID,0.157292,
2005-06-12, 01:25:00,VALID,916.335,VALID,0,VALID,99.7993,VALID,-0.0849042,VALID,21.3366,VALID,237,VALID,0.0111607,
2005-06-12, 01:26:00,VALID,916.347,VALID,0,VALID,99.7561,VALID,-0.0849042,VALID,21.3398,VALID,237,VALID,0,
2005-06-12, 01:27:00,VALID,916.339,VALID,0,VALID,99.7587,VALID,-0.118866,VALID,21.363,VALID,237,VALID,0.00090843,
2005-06-12, 01:28:00,VALID,916.347,VALID,0,VALID,99.7612,VALID,-0.0849042,VALID,21.3692,VALID,237,VALID,0,
2005-06-12, 01:29:00,VALID,916.362,VALID,0,VALID,99.7675,VALID,-0.0849042,VALID,21.3885,VALID,237,VALID,0.072218,
2005-06-12, 01:30:00,VALID,916.373,VALID,0,VALID,99.7218,VALID,-0.0679233,VALID,21.4047,VALID,319,VALID,0.347565,
2005-06-12, 01:31:00,VALID,916.41,VALID,0,VALID,99.6862,VALID,-0.0509425,VALID,21.4074,VALID,359,VALID,0.303943,
2005-06-12, 01:32:00,VALID,916.417,VALID,0,VALID,99.6442,VALID,-0.0679233,VALID,21.4338,VALID,359,VALID,0.298692,
2005-06-12, 01:33:00,VALID,916.418,VALID,0,VALID,99.5654,VALID,-0.0509425,VALID,21.4338,VALID,6,VALID,0.426736,
2005-06-12, 01:34:00,VALID,916.426,VALID,0,VALID,99.4954,VALID,-0.0509425,VALID,21.43,VALID,29,VALID,0.889482,
2005-06-12, 01:35:00,VALID,916.414,VALID,0,VALID,99.4484,VALID,-0.0679233,VALID,21.4335,VALID,19,VALID,1.02852,
2005-06-12, 01:36:00,VALID,916.401,VALID,0,VALID,99.4598,VALID,-0.0849042,VALID,21.4173,VALID,29,VALID,0.781771,
2005-06-12, 01:37:00,VALID,916.396,VALID,0,VALID,99.4789,VALID,-0.0679233,VALID,21.437,VALID,32,VALID,0.550521,
2005-06-12, 01:38:00,VALID,916.387,VALID,0,VALID,99.4814,VALID,0.0339617,VALID,21.4545,VALID,32,VALID,0.404204,
2005-06-12, 01:39:00,VALID,916.369,VALID,0,VALID,99.4509,VALID,0.0679233,VALID,21.4542,VALID,32,VALID,0.476372,
2005-06-12, 01:40:00,VALID,916.363,VALID,0,VALID,99.4446,VALID,0.0509425,VALID,21.4478,VALID,32,VALID,0.450893,
2005-06-12, 01:41:00,VALID,916.367,VALID,0,VALID,99.4255,VALID,0.0339617,VALID,21.4609,VALID,31,VALID,0.0880335,
2005-06-12, 01:42:00,VALID,916.356,VALID,0,VALID,99.4013,VALID,0.0679233,VALID,21.4642,VALID,31,VALID,0,
2005-06-12, 01:43:00,VALID,916.355,VALID,0,VALID,99.3606,VALID,0.0339617,VALID,21.4604,VALID,31,VALID,0,
2005-06-12, 01:44:00,VALID,916.342,VALID,0,VALID,99.3098,VALID,0.0509425,VALID,21.4634,VALID,32,VALID,0.0179116,
2005-06-12, 01:45:00,VALID,916.324,VALID,0,VALID,99.278,VALID,0.0339617,VALID,21.4771,VALID,26,VALID,0.471112,
2005-06-12, 01:46:00,VALID,916.309,VALID,0,VALID,99.2449,VALID,0.0679233,VALID,21.4639,VALID,348,VALID,0.337271,
2005-06-12, 01:47:00,VALID,916.295,VALID,0,VALID,99.2246,VALID,0.101885,VALID,21.4539,VALID,321,VALID,0.0123857,
2005-06-12, 01:48:00,VALID,916.283,VALID,0,VALID,99.2513,VALID,0.0339617,VALID,21.4445,VALID,321,VALID,0.104353,
2005-06-12, 01:49:00,VALID,916.262,VALID,0,VALID,99.3136,VALID,0.0339617,VALID,21.4375,VALID,324,VALID,0.264027,
2005-06-12, 01:50:00,VALID,916.252,VALID,0,VALID,99.3136,VALID,0.0679233,VALID,21.4375,VALID,346,VALID,0.411156,
2005-06-12, 01:51:00,VALID,916.26,VALID,0,VALID,99.3708,VALID,0.0679233,VALID,21.4305,VALID,353,VALID,0.25142,
2005-06-12, 01:52:00,VALID,916.261,VALID,0,VALID,99.3835,VALID,0.0339617,VALID,21.4408,VALID,353,VALID,0.206395,
2005-06-12, 01:53:00,VALID,916.251,VALID,0,VALID,99.3492,VALID,-0.0849042,VALID,21.4461,VALID,353,VALID,0.195122,
2005-06-12, 01:54:00,VALID,916.244,VALID,0,VALID,99.3505,VALID,-0.0169808,VALID,21.4561,VALID,15,VALID,0.585565,
2005-06-12, 01:55:00,VALID,916.221,VALID,0,VALID,99.2805,VALID,-0.0509425,VALID,21.4391,VALID,23,VALID,0.514898,
2005-06-12, 01:56:00,VALID,916.216,VALID,0,VALID,99.2932,VALID,-0.0339617,VALID,21.4499,VALID,23,VALID,0.452195,
2005-06-12, 01:57:00,VALID,916.202,VALID,0,VALID,99.2958,VALID,-0.0509425,VALID,21.4461,VALID,19,VALID,0.753534,
2005-06-12, 01:58:00,VALID,916.176,VALID,0,VALID,99.2767,VALID,-0.101885,VALID,21.4268,VALID,357,VALID,0.983842,
2005-06-12, 01:59:00,VALID,916.151,VALID,0,VALID,99.292,VALID,-0.0679233,VALID,21.4071,VALID,358,VALID,0.930246,
2005-06-12, 02:00:00,VALID,916.132,VALID,0,VALID,99.3962,VALID,-0.0509425,VALID,21.3939,VALID,20,VALID,0.578295,
2005-06-12, 02:01:00,VALID,916.086,VALID,0,VALID,99.4051,VALID,-0.0509425,VALID,21.4012,VALID,346,VALID,0.781795,
2005-06-12, 02:02:00,VALID,916.075,VALID,0,VALID,99.3937,VALID,-0.0339617,VALID,21.3813,VALID,14,VALID,0.793636,
2005-06-12, 02:03:00,VALID,916.058,VALID,0,VALID,99.4064,VALID,-0.0339617,VALID,21.3678,VALID,11,VALID,0.732851,
2005-06-12, 02:04:00,VALID,916.055,VALID,0,VALID,99.3962,VALID,-0.0339617,VALID,21.3587,VALID,356,VALID,0.648438,
2005-06-12, 02:05:00,VALID,916.023,VALID,0,VALID,99.3975,VALID,-0.101885,VALID,21.3562,VALID,1,VALID,1.29742,
2005-06-12, 02:06:00,VALID,915.987,VALID,0,VALID,99.395,VALID,-0.0849042,VALID,21.3333,VALID,18,VALID,1.61514,
2005-06-12, 02:07:00,VALID,915.964,VALID,0,VALID,99.4331,VALID,-0.0849042,VALID,21.3204,VALID,13,VALID,0.977095,
2005-06-12, 02:08:00,VALID,915.949,VALID,0,VALID,99.4649,VALID,-0.0509425,VALID,21.2943,VALID,15,VALID,0.828303,
2005-06-12, 02:09:00,VALID,915.933,VALID,0,VALID,99.5031,VALID,-0.0849042,VALID,21.2784,VALID,16,VALID,0.813616,
2005-06-12, 02:10:00,VALID,915.928,VALID,0,VALID,99.5603,VALID,-0.101885,VALID,21.262,VALID,13,VALID,0.746366,
2005-06-12, 02:11:00,VALID,915.926,VALID,0,VALID,99.5933,VALID,-0.0849042,VALID,21.2561,VALID,21,VALID,0.549538,
2005-06-12, 02:12:00,VALID,915.926,VALID,0,VALID,99.6302,VALID,-0.0849042,VALID,21.2499,VALID,22,VALID,0.434837,
2005-06-12, 02:13:00,VALID,915.924,VALID,0,VALID,99.634,VALID,-0.101885,VALID,21.2233,VALID,21,VALID,0.641992,
2005-06-12, 02:14:00,VALID,915.918,VALID,0,VALID,99.6913,VALID,-0.0849042,VALID,21.2276,VALID,15,VALID,1.04088,
2005-06-12, 02:15:00,VALID,915.9,VALID,0,VALID,99.7307,VALID,-0.0849042,VALID,21.2144,VALID,15,VALID,0.916243,
2005-06-12, 02:16:00,VALID,915.892,VALID,0,VALID,99.7854,VALID,-0.0849042,VALID,21.1977,VALID,8,VALID,1.24878,
2005-06-12, 02:17:00,VALID,915.875,VALID,0,VALID,99.8871,VALID,-0.0849042,VALID,21.1778,VALID,8,VALID,1.37336,
2005-06-12, 02:18:00,VALID,915.848,VALID,0,VALID,99.983,VALID,-0.0849042,VALID,21.1646,VALID,7,VALID,0.868608,
2005-06-12, 02:19:00,VALID,915.84,VALID,0,VALID,100,VALID,-0.101885,VALID,21.1616,VALID,6,VALID,0.657703,
2005-06-12, 02:20:00,VALID,915.819,VALID,0,VALID,100,VALID,-0.0679233,VALID,21.1753,VALID,354,VALID,0.712674,
2005-06-12, 02:21:00,VALID,915.8,VALID,0,VALID,100,VALID,-0.0679233,VALID,21.1783,VALID,344,VALID,0.2874,
2005-06-12, 02:22:00,VALID,915.783,VALID,0,VALID,100,VALID,-0.0849042,VALID,21.1753,VALID,15,VALID,0.594113,
2005-06-12, 02:23:00,VALID,915.774,VALID,0,VALID,100,VALID,-0.0679233,VALID,21.185,VALID,20,VALID,0.749467,
2005-06-12, 02:24:00,VALID,915.772,VALID,0,VALID,100,VALID,-0.0849042,VALID,21.1885,VALID,10,VALID,0.828311,
2005-06-12, 02:25:00,VALID,915.781,VALID,0,VALID,100,VALID,-0.101885,VALID,21.1947,VALID,357,VALID,0.0928416,
2005-06-12, 02:26:00,VALID,915.781,VALID,0,VALID,100,VALID,-0.101885,VALID,21.2114,VALID,357,VALID,0.021875,
2005-06-12, 02:27:00,VALID,915.773,VALID,0,VALID,100,VALID,-0.101885,VALID,21.2216,VALID,357,VALID,0.00417878,
2005-06-12, 02:28:00,VALID,915.771,VALID,0,VALID,100,VALID,-0.101885,VALID,21.2146,VALID,357,VALID,0.0384909,
2005-06-12, 02:29:00,VALID,915.761,VALID,0,VALID,100,VALID,-0.101885,VALID,21.2313,VALID,357,VALID,0.00223214,
2005-06-12, 02:30:00,VALID,915.764,VALID,0,VALID,100,VALID,-0.101885,VALID,21.2378,VALID,357,VALID,0.330611,
2005-06-12, 02:31:00,VALID,915.753,VALID,0,VALID,100,VALID,-0.101885,VALID,21.2278,VALID,357,VALID,0.118304,
2005-06-12, 02:32:00,VALID,915.732,VALID,0,VALID,100,VALID,-0.101885,VALID,21.2246,VALID,331,VALID,0.209695,
2005-06-12, 02:33:00,VALID,915.724,VALID,0,VALID,100,VALID,-0.101885,VALID,21.2278,VALID,282,VALID,0.0842634,
2005-06-12, 02:34:00,VALID,915.7,VALID,0,VALID,100,VALID,-0.0679233,VALID,21.234,VALID,283,VALID,0.14826,
2005-06-12, 02:35:00,VALID,915.684,VALID,0,VALID,100,VALID,-0.101885,VALID,21.2569,VALID,288,VALID,0.303472,
2005-06-12, 02:36:00,VALID,915.643,VALID,0,VALID,100,VALID,-0.101885,VALID,21.2566,VALID,303,VALID,0.296689,
2005-06-12, 02:37:00,VALID,915.619,VALID,0,VALID,100,VALID,-0.0849042,VALID,21.2564,VALID,348,VALID,0.612153,
2005-06-12, 02:38:00,VALID,915.611,VALID,0,VALID,100,VALID,0,VALID,21.2655,VALID,23,VALID,0.509266,
2005-06-12, 02:39:00,VALID,915.606,VALID,0,VALID,100,VALID,0.0169808,VALID,21.2749,VALID,23,VALID,0.304315,
2005-06-12, 02:40:00,VALID,915.596,VALID,0,VALID,100,VALID,0.0169808,VALID,21.2642,VALID,23,VALID,0.151736,
2005-06-12, 02:41:00,VALID,915.597,VALID,0,VALID,100,VALID,0.0339617,VALID,21.2911,VALID,23,VALID,0,
2005-06-12, 02:42:00,VALID,915.591,VALID,0,VALID,100,VALID,0.0169808,VALID,21.2906,VALID,23,VALID,0.196875,
2005-06-12, 02:43:00,VALID,915.597,VALID,0,VALID,100,VALID,0,VALID,21.3037,VALID,23,VALID,0.170455,
2005-06-12, 02:44:00,VALID,915.609,VALID,0,VALID,100,VALID,0.0169808,VALID,21.3202,VALID,23,VALID,0.169513,
2005-06-12, 02:45:00,VALID,915.632,VALID,0,VALID,100,VALID,0.0169808,VALID,21.3363,VALID,23,VALID,0.437137,
2005-06-12, 02:46:00,VALID,915.646,VALID,0,VALID,100,VALID,0,VALID,21.3325,VALID,23,VALID,0.187153,
2005-06-12, 02:47:00,VALID,915.66,VALID,0,VALID,100,VALID,0,VALID,21.3624,VALID,24,VALID,0.724805,
2005-06-12, 02:48:00,VALID,915.655,VALID,0,VALID,100,VALID,0.0169808,VALID,21.3482,VALID,17,VALID,0.584821,
2005-06-12, 02:49:00,VALID,915.666,VALID,0,VALID,99.9969,VALID,0,VALID,21.3581,VALID,17,VALID,0.219295,
2005-06-12, 02:50:00,VALID,915.674,VALID,0,VALID,99.9929,VALID,0.0339617,VALID,21.3743,VALID,17,VALID,0,
2005-06-12, 02:51:00,VALID,915.668,VALID,0,VALID,99.9809,VALID,0.0339617,VALID,21.384,VALID,17,VALID,0,
2005-06-12, 02:52:00,VALID,915.682,VALID,0,VALID,99.9354,VALID,0.0169808,VALID,21.4009,VALID,17,VALID,0.0133929,
2005-06-12, 02:53:00,VALID,915.677,VALID,0,VALID,99.8998,VALID,0,VALID,21.4068,VALID,17,VALID,0,
2005-06-12, 02:54:00,VALID,915.671,VALID,0,VALID,99.8591,VALID,0.0339617,VALID,21.4163,VALID,17,VALID,0,
2005-06-12, 02:55:00,VALID,915.649,VALID,0,VALID,99.7701,VALID,-0.0169808,VALID,21.423,VALID,17,VALID,0,
2005-06-12, 02:56:00,VALID,915.643,VALID,0,VALID,99.6951,VALID,0,VALID,21.4098,VALID,17,VALID,0,
2005-06-12, 02:57:00,VALID,915.632,VALID,0,VALID,99.6328,VALID,0.0169808,VALID,21.4165,VALID,17,VALID,0,
2005-06-12, 02:58:00,VALID,915.622,VALID,0,VALID,99.5972,VALID,0.0169808,VALID,21.416,VALID,17,VALID,0.108203,
2005-06-12, 02:59:00,VALID,915.626,VALID,0,VALID,99.5679,VALID,0.0169808,VALID,21.413,VALID,17,VALID,0.204578,
2005-06-12, 03:00:00,VALID,915.61,VALID,0,VALID,99.5755,VALID,0.0169808,VALID,21.4001,VALID,17,VALID,0.118823,
2005-06-12, 03:01:00,VALID,915.609,VALID,0,VALID,99.5997,VALID,0,VALID,21.3904,VALID,17,VALID,0.00223214,
2005-06-12, 03:02:00,VALID,915.621,VALID,0,VALID,99.6824,VALID,0,VALID,21.3971,VALID,17,VALID,0.294531,
2005-06-12, 03:03:00,VALID,915.617,VALID,0,VALID,99.723,VALID,0.0169808,VALID,21.4101,VALID,17,VALID,0.175509,
2005-06-12, 03:04:00,VALID,915.63,VALID,0,VALID,99.7408,VALID,0,VALID,21.4203,VALID,17,VALID,0.382994,
2005-06-12, 03:05:00,VALID,915.651,VALID,0,VALID,99.7408,VALID,0,VALID,21.4195,VALID,19,VALID,0.434152,
2005-06-12, 03:06:00,VALID,915.658,VALID,0,VALID,99.6887,VALID,0.0169808,VALID,21.4327,VALID,24,VALID,0.199033,
2005-06-12, 03:07:00,VALID,915.681,VALID,0,VALID,99.648,VALID,0,VALID,21.4324,VALID,24,VALID,0.0710938,
2005-06-12, 03:08:00,VALID,915.695,VALID,0,VALID,99.6251,VALID,-0.101885,VALID,21.4305,VALID,24,VALID,0.0012718,
2005-06-12, 03:09:00,VALID,915.706,VALID,0,VALID,99.5984,VALID,-0.0849042,VALID,21.4346,VALID,24,VALID,0.241642,
2005-06-12, 03:10:00,VALID,915.73,VALID,0,VALID,99.5666,VALID,-0.0679233,VALID,21.4278,VALID,24,VALID,0.123001,
2005-06-12, 03:11:00,VALID,915.737,VALID,0,VALID,99.5132,VALID,-0.101885,VALID,21.4214,VALID,309,VALID,0.266369,
2005-06-12, 03:12:00,VALID,915.767,VALID,0,VALID,99.4814,VALID,-0.0849042,VALID,21.4117,VALID,290,VALID,0.391016,
2005-06-12, 03:13:00,VALID,915.762,VALID,0,VALID,99.4802,VALID,-0.101885,VALID,21.4085,VALID,337,VALID,0.428925,
2005-06-12, 03:14:00,VALID,915.763,VALID,0,VALID,99.4992,VALID,-0.101885,VALID,21.4023,VALID,345,VALID,0.429521,
2005-06-12, 03:15:00,VALID,915.766,VALID,0,VALID,99.4725,VALID,-0.0849042,VALID,21.4085,VALID,354,VALID,0.512784,
2005-06-12, 03:16:00,VALID,915.756,VALID,0,VALID,99.5488,VALID,-0.0849042,VALID,21.4052,VALID,6,VALID,0.639291,
2005-06-12, 03:17:00,VALID,915.761,VALID,0,VALID,99.5908,VALID,-0.0849042,VALID,21.4146,VALID,10,VALID,0.355035,
2005-06-12, 03:18:00,VALID,915.764,VALID,0,VALID,99.5717,VALID,-0.0679233,VALID,21.4214,VALID,9,VALID,0.365451,
2005-06-12, 03:19:00,VALID,915.765,VALID,0,VALID,99.5565,VALID,-0.0679233,VALID,21.4146,VALID,9,VALID,0.201527,
2005-06-12, 03:20:00,VALID,915.769,VALID,0,VALID,99.5043,VALID,-0.0849042,VALID,21.4082,VALID,16,VALID,0.628551,
2005-06-12, 03:21:00,VALID,915.792,VALID,0,VALID,99.5247,VALID,-0.101885,VALID,21.405,VALID,8,VALID,0.227431,
2005-06-12, 03:22:00,VALID,915.795,VALID,0,VALID,99.5628,VALID,-0.101885,VALID,21.4087,VALID,8,VALID,0.141768,
2005-06-12, 03:23:00,VALID,915.786,VALID,0,VALID,99.545,VALID,-0.0509425,VALID,21.4203,VALID,8,VALID,0.0286458,
2005-06-12, 03:24:00,VALID,915.776,VALID,0,VALID,99.5056,VALID,-0.0169808,VALID,21.4338,VALID,8,VALID,0,
2005-06-12, 03:25:00,VALID,915.766,VALID,0,VALID,99.4446,VALID,0,VALID,21.4332,VALID,8,VALID,0.000558036,
2005-06-12, 03:26:00,VALID,915.773,VALID,0,VALID,99.3873,VALID,0,VALID,21.4329,VALID,8,VALID,0.315358,
2005-06-12, 03:27:00,VALID,915.787,VALID,0,VALID,99.3301,VALID,-0.0509425,VALID,21.4332,VALID,9,VALID,0.585565,
2005-06-12, 03:28:00,VALID,915.778,VALID,0,VALID,99.2602,VALID,-0.0679233,VALID,21.4233,VALID,16,VALID,0.716406,
2005-06-12, 03:29:00,VALID,915.785,VALID,0,VALID,99.2157,VALID,-0.0509425,VALID,21.4211,VALID,15,VALID,0.546875,
2005-06-12, 03:30:00,VALID,915.765,VALID,0,VALID,99.1902,VALID,-0.0679233,VALID,21.4009,VALID,8,VALID,0.75744,
2005-06-12, 03:31:00,VALID,915.764,VALID,0,VALID,99.2246,VALID,-0.0339617,VALID,21.3813,VALID,4,VALID,0.837652,
2005-06-12, 03:32:00,VALID,915.742,VALID,0,VALID,99.2818,VALID,-0.0339617,VALID,21.3589,VALID,351,VALID,0.752232,
2005-06-12, 03:33:00,VALID,915.729,VALID,0,VALID,99.3517,VALID,-0.0509425,VALID,21.3393,VALID,350,VALID,0.534884,